Vertical_Velocity
-1 1 -1 0 2 -4 -5 1 -3 0 1 -2 -0 1 2 2 -5 -0 4 9 5 -3 -2 -0 -4 -1 3 -1 -3 -3 -2 -3 -1 -2 -2 -1 0 1 -0 -0 -3 -0 0 -2
1 -2 -1 -1 -2 -2 -1 -1 2 -0 -1 -3 -0 2 -1 -0 -2 -8 -2 -3 -4 3 -4 4 1 3 -2 1 1 -1 -3 -2 -2 1 -2 -2 0 -1 1 -1 0 -1 -1 2
1 -2 -3 -5 -4 -1 -0 -4 1 -4 -2 2 -4 1 2 -1 -2 -3 -1 -5 -2 10 -3 -6 1 0 -1 -1 -0 3 -1 -1 -1 -3 -4 -2 -1 -0 -1 -1 -1 1 -0 -2
1 2 -1 -1 -2 1 1 0 -2 -6 -4 3 -4 0 -4 -4 -4 -4 1 -4 -0 4 -3 0 -4 8 -3 -1 -0 -4 -3 -3 -3 -4 -3 -3 -1 1 0 3 -0 1 1 -2
4 -2 -1 1 3 -0 -2 -1 -1 -1 -1 4 -2 1 0 -8 -7 -4 1 -3 -2 0 -1 -1 -1 1 -2 -4 -1 2 -1 0 -2 -1 -3 -2 -1 0 1 -2 -1 -1 -1 1
-2 -2 -1 -0 -0 -1 -1 -0 -0 1 3 -2 1 3 -8 2 -5 -6 -6 5 -9 -7 -1 -0 -4 -4 3 -3 -5 -1 -1 -2 -0 -3 -3 -3 -2 -1 -0 -4 -2 1 -0 -1
5 1 3 -1 1 2 -0 -1 1 6 -3 -7 -4 3 1 1 2 -10 -2 -3 -1 -16 3 -0 -2 -3 -1 2 -2 -3 -6 -4 -3 -4 -3 -3 -3 -2 -1 -0 -2 1 -3 -2
1 -10 -9 -1 -2 -0 -1 -3 -1 -4 1 -10 -2 -24 -20 37 -3 -8 -4 -9 -3 -12 -4 -0 -2 -3 -6 -0 1 2 3 -4 -5 -3 -2 -4 -2 -2 -3 -2 -1 1 4 -2
-4 -1 -1 3 1 -4 0 -2 -1 -3 -2 -15 2 9 12 20 38 1 11 1 -1 -11 -4 2 -1 -3 -2 -6 -2 -5 -7 -5 -4 -5 -5 -2 -3 -2 -2 -1 -0 0 2 1
-1 -8 -1 -5 4 9 1 2 1 0 -5 -2 24 -17 8 40 4 -10 10 -0 1 -2 0 5 5 3 1 1 -1 -3 -5 -5 -4 -5 -4 -4 -5 -2 -2 -1 1 1 2 0
0 -0 5 -3 20 -20 1 7 3 9 7 -3 -2 19 -5 -11 -4 -5 -2 3 4 5 -4 10 4 5 4 3 4 2 1 -2 -5 -4 -5 -5 -3 -4 -3 -3 -3 -0 3 1
0 1 2 -4 18 -4 12 3 -8 0 -9 5 6 10 13 15 -17 -6 -0 13 9 10 -9 -3 1 2 -1 1 4 8 7 6 2 -3 -3 -6 -5 -3 -4 -3 -2 -2 -0 0
3 2 -4 5 5 -4 -1 5 7 12 2 -2 3 1 8 -2 -15 5 19 22 2 8 35 -11 -12 -8 -8 -8 -9 -11 5 16 9 5 -3 -3 -6 -7 -4 -4 -4 -3 -0 0
1 4 -1 -0 2 -7 -6 3 -0 -8 -9 -6 6 10 -6 -3 5 12 -18 -21 -4 -3 -12 13 38 42 15 12 -14 -5 -6 -14 15 16 5 -2 -3 -5 -6 -3 -4 -3 -2 -1
-2 2 -1 -1 -1 5 1 -7 -4 0 1 14 7 34 -2 2 -6 -3 -1 -17 -0 -5 -7 -5 11 95 50 5 10 -15 11 8 -17 14 21 6 -0 -2 -7 -4 -1 -6 -4 2
-6 -1 0 2 1 -6 8 -3 -11 7 -4 -8 -0 9 -8 -2 -1 1 16 7 -1 -11 4 2 -60 7 447 4 6 2 -16 -8 13 -21 7 23 3 0 -3 -7 -5 0 -7 -6
-2 -4 -0 5 -3 -3 6 1 2 6 3 -2 11 -6 -12 -12 -2 8 9 -2 -1 12 -19 -13 2 -25 248 47 -5 -1 -9 -10 2 -8 -6 14 10 -2 1 -5 -3 -4 -2 -5
-2 2 -1 0 -1 -4 -6 -10 -3 -12 6 7 7 2 -0 11 14 -0 14 -5 11 -19 5 -5 -40 11 129 35 -13 -2 -3 -0 -7 -1 -0 2 7 -0 2 -1 -3 -2 -3 -4
-4 -5 -2 -2 -0 -2 -7 -2 -4 -0 -3 3 5 6 2 0 9 7 2 -13 2 -7 -16 -13 -13 63 5 112 16 23 3 3 -5 13 -5 -12 13 3 -3 -1 -3 -2 1 -3
-3 -5 -5 -6 -8 -8 -7 1 -4 1 -6 -8 8 -1 -2 18 10 2 12 3 -11 10 1 -13 -20 -44 8 -17 175 -48 -3 73 -2 3 1 -9 13 20 8 1 -2 -3 -0 -3
-3 -2 -4 -4 -3 -11 -5 -4 3 1 -4 1 -2 0 2 3 14 10 -12 1 -14 -13 9 5 -16 -14 -14 -19 -5 -3 4 17 5 9 -2 -5 -2 6 2 -3 -5 2 -1 -5
-3 2 -5 2 -6 -10 3 -13 1 1 -1 -2 4 -2 5 1 2 -4 -4 -16 9 -9 -18 -10 -6 -10 -14 -36 -11 -8 7 -4 12 -4 1 -0 -1 -11 -1 -5 11 4 -1 4
-3 5 -2 -2 -19 -5 -9 2 -9 -5 -5 3 -5 1 -2 9 3 3 -3 -13 -1 -6 6 -5 -8 -0 -3 8 -3 18 2 -0 -0 -3 1 0 -7 -2 11 -6 -8 -2 -5 11
-1 0 1 -1 -11 1 -7 -7 -11 -1 -4 -6 -3 -1 1 1 6 4 0 -13 -7 1 -15 -4 -2 -1 0 -4 2 -1 8 -5 3 12 2 -1 -1 -8 1 0 -7 -3 -9 8
2 -3 -4 -4 2 3 -11 -6 -1 -0 -1 -0 -2 -2 -2 -3 7 6 4 2 11 -2 -6 -5 -2 -6 -0 -1 -3 -3 5 -4 2 6 5 3 6 -5 3 -6 -3 -1 -9 -11
-1 -0 1 -2 -0 3 4 2 -1 -3 -2 -3 -3 -2 -3 -5 0 1 5 4 -5 -9 -3 -3 -0 -3 -1 -2 -4 -1 -3 -2 -5 2 -0 -1 -2 13 7 6 -3 -3 -1 -9
Height
5925 5926 5925 5926 5925 5923 5924 5927 5925 5926 5925 5924 5923 5922 5922 5921 5918 5918 5918 5918 5917 5913 5912 5913 5912 5912 5912 5912 5912 5913 5913 5916 5918 5919 5921 5924 5926 5928 5931 5933 5934 5936 5938 5941
5925 5923 5923 5923 5923 5923 5923 5923 5923 5923 5923 5921 5920 5921 5920 5920 5919 5917 5918 5917 5916 5916 5914 5914 5915 5913 5912 5912 5912 5913 5913 5914 5916 5918 5920 5922 5924 5926 5928 5930 5932 5935 5935 5938
5922 5921 5920 5919 5920 5921 5921 5920 5920 5920 5919 5920 5918 5918 5918 5918 5918 5918 5918 5916 5916 5917 5913 5912 5913 5912 5911 5912 5912 5913 5913 5913 5915 5917 5918 5920 5922 5924 5926 5927 5929 5932 5934 5936
5919 5919 5918 5917 5918 5918 5918 5918 5917 5916 5918 5919 5917 5917 5915 5915 5915 5916 5917 5917 5916 5916 5914 5913 5912 5915 5912 5911 5912 5912 5912 5912 5913 5914 5916 5917 5919 5921 5923 5926 5928 5930 5932 5934
5916 5914 5915 5915 5916 5914 5914 5914 5915 5916 5917 5918 5916 5915 5914 5911 5912 5915 5917 5917 5916 5915 5915 5914 5912 5912 5911 5910 5909 5910 5911 5911 5911 5912 5913 5915 5916 5918 5921 5922 5926 5928 5931 5932
5911 5912 5913 5912 5912 5910 5910 5911 5912 5915 5915 5916 5915 5914 5910 5912 5913 5914 5915 5917 5914 5913 5915 5915 5913 5911 5911 5910 5909 5909 5908 5909 5910 5911 5911 5912 5913 5913 5918 5920 5923 5925 5927 5929
5910 5908 5909 5909 5909 5908 5908 5908 5910 5913 5911 5911 5913 5915 5913 5914 5915 5914 5914 5914 5913 5910 5914 5914 5913 5911 5911 5910 5909 5908 5907 5907 5907 5908 5909 5910 5912 5914 5916 5918 5920 5922 5923 5924
5906 5904 5903 5906 5908 5908 5907 5907 5908 5907 5909 5911 5913 5915 5913 5915 5914 5913 5911 5909 5909 5906 5912 5912 5911 5910 5909 5910 5909 5909 5908 5906 5906 5906 5906 5907 5909 5912 5914 5916 5917 5919 5920 5917
5904 5905 5906 5907 5907 5907 5907 5906 5907 5907 5910 5912 5913 5913 5914 5915 5915 5912 5912 5910 5907 5902 5907 5910 5909 5908 5907 5905 5905 5904 5903 5904 5904 5905 5905 5906 5907 5909 5910 5912 5913 5914 5916 5915
5904 5902 5904 5905 5907 5908 5907 5907 5908 5907 5907 5909 5911 5909 5913 5912 5904 5907 5909 5906 5905 5903 5902 5906 5907 5905 5905 5904 5903 5901 5900 5901 5902 5903 5903 5904 5905 5906 5907 5909 5910 5911 5912 5912
5901 5902 5905 5904 5906 5901 5904 5906 5904 5906 5907 5907 5907 5909 5904 5902 5901 5901 5901 5903 5904 5902 5900 5903 5903 5903 5902 5902 5901 5899 5899 5899 5899 5900 5901 5902 5903 5904 5905 5906 5907 5908 5909 5909
5897 5898 5900 5901 5904 5897 5900 5899 5894 5895 5898 5902 5902 5903 5901 5900 5896 5899 5898 5897 5899 5898 5897 5897 5899 5900 5899 5899 5898 5897 5897 5897 5896 5897 5898 5899 5900 5901 5902 5903 5904 5906 5906 5906
5893 5894 5893 5898 5898 5894 5893 5895 5895 5894 5894 5895 5894 5892 5890 5885 5884 5889 5892 5893 5892 5890 5887 5888 5889 5890 5891 5893 5894 5895 5896 5894 5894 5894 5895 5896 5897 5899 5900 5900 5901 5903 5904 5905
5887 5889 5889 5890 5891 5887 5887 5886 5887 5886 5886 5887 5888 5883 5877 5878 5875 5878 5872 5872 5880 5880 5871 5873 5874 5881 5884 5882 5886 5889 5891 5893 5892 5892 5892 5893 5894 5895 5896 5898 5898 5899 5900 5901
5882 5881 5880 5881 5881 5882 5882 5878 5879 5878 5877 5877 5881 5875 5868 5864 5858 5862 5864 5868 5868 5873 5867 5867 5860 5847 5868 5880 5877 5883 5886 5887 5889 5889 5889 5890 5891 5892 5893 5894 5896 5895 5896 5898
5872 5872 5871 5872 5872 5871 5871 5869 5868 5868 5864 5863 5865 5863 5856 5856 5852 5852 5855 5856 5857 5863 5864 5857 5839 5808 5799 5863 5868 5871 5877 5881 5885 5886 5886 5886 5887 5888 5889 5891 5891 5893 5893 5893
5865 5863 5862 5861 5860 5861 5859 5857 5858 5856 5853 5853 5852 5847 5845 5842 5842 5842 5841 5846 5850 5851 5850 5843 5831 5805 5808 5836 5855 5860 5864 5871 5877 5881 5882 5883 5883 5884 5885 5887 5888 5888 5889 5890
5857 5856 5854 5853 5851 5852 5845 5846 5844 5841 5840 5840 5836 5832 5835 5840 5835 5829 5829 5834 5837 5837 5832 5830 5831 5808 5820 5826 5841 5849 5853 5859 5866 5871 5874 5876 5877 5878 5879 5882 5884 5885 5884 5885
5851 5849 5848 5847 5845 5843 5840 5836 5834 5830 5829 5827 5823 5820 5818 5821 5818 5817 5815 5817 5824 5823 5819 5818 5825 5823 5798 5797 5829 5833 5844 5850 5857 5861 5864 5868 5870 5870 5871 5875 5877 5879 5879 5879
5844 5843 5842 5840 5837 5835 5832 5829 5824 5820 5815 5810 5810 5810 5808 5806 5802 5800 5803 5805 5807 5811 5809 5811 5815 5816 5819 5819 5789 5808 5830 5832 5846 5850 5853 5857 5859 5861 5864 5866 5869 5871 5872 5873
5840 5839 5837 5834 5830 5827 5823 5819 5816 5809 5807 5801 5796 5794 5792 5792 5790 5788 5787 5794 5796 5799 5800 5803 5805 5809 5812 5815 5815 5822 5825 5829 5837 5841 5844 5848 5851 5854 5856 5857 5859 5860 5863 5865
5836 5835 5831 5828 5823 5819 5815 5809 5804 5802 5797 5792 5788 5784 5782 5780 5776 5772 5773 5781 5784 5788 5790 5793 5793 5798 5801 5808 5815 5820 5822 5824 5824 5829 5834 5837 5839 5843 5846 5848 5848 5848 5853 5855
5831 5830 5826 5823 5815 5810 5804 5800 5794 5789 5786 5783 5777 5774 5771 5772 5769 5764 5762 5768 5772 5773 5779 5781 5786 5788 5791 5801 5801 5804 5811 5812 5814 5818 5821 5825 5828 5832 5835 5838 5836 5838 5842 5845
5823 5822 5820 5816 5810 5805 5796 5793 5788 5781 5777 5773 5768 5765 5761 5758 5757 5755 5753 5753 5758 5762 5764 5768 5770 5771 5775 5780 5789 5790 5795 5798 5800 5804 5808 5812 5814 5818 5822 5823 5825 5827 5830 5832
5818 5814 5812 5808 5804 5801 5791 5786 5781 5777 5770 5763 5760 5756 5752 5749 5748 5745 5744 5742 5742 5744 5750 5752 5754 5759 5761 5765 5771 5775 5776 5780 5783 5788 5793 5797 5800 5803 5806 5809 5812 5814 5815 5820
5811 5809 5807 5803 5798 5794 5791 5784 5776 5769 5762 5755 5750 5747 5742 5739 5739 5736 5734 5732 5732 5732 5733 5737 5740 5744 5747 5751 5754 5759 5762 5764 5768 5771 5776 5780 5783 5787 5787 5793 5797 5800 5802 5804